| time (UTC) | temp C | wind direction | speed KPH | gust KPH | rain 1hr cm | rain 24hr cm | rain mn cm | humidity % | barometer mb |
| 20260506062119 | 24 | 171 | 16.1 | 22.5 | 0.00 | 0.00 | 0.00 | 89 | 1010.0 |
| 20260506061617 | 24 | 175 | 16.1 | 24.1 | 0.00 | 0.00 | 0.00 | 89 | 1010.0 |
| 20260506061130 | 24 | 159 | 20.9 | 24.1 | 0.00 | 0.00 | 0.00 | 89 | 1010.0 |
| 20260506060624 | 24 | 157 | 20.9 | 29.0 | 0.00 | 0.00 | 0.00 | 89 | 1010.2 |
| 20260506060118 | 24 | 155 | 19.3 | 29.0 | 0.00 | 0.00 | 0.00 | 89 | 1010.1 |
| 20260506051125 | 24 | 151 | 17.7 | 24.1 | 0.00 | 0.00 | 0.00 | 88 | 1010.1 |
| 20260506050619 | 24 | 148 | 16.1 | 25.7 | 0.00 | 0.00 | 0.00 | 88 | 1010.1 |
| 20260506050131 | 24 | 162 | 17.7 | 25.7 | 0.00 | 0.00 | 0.00 | 88 | 1010.0 |
| 20260506044709 | 25 | 154 | 16.1 | 30.6 | 0.00 | 0.00 | 0.00 | 88 | 1010.0 |
| 20260506044205 | 25 | 157 | 19.3 | 30.6 | 0.00 | 0.00 | 0.00 | 88 | 1010.0 |
| 20260506043705 | 25 | 163 | 20.9 | 30.6 | 0.00 | 0.00 | 0.00 | 88 | 1010.0 |
| 20260506043114 | 25 | 149 | 22.5 | 33.8 | 0.00 | 0.00 | 0.00 | 88 | 1009.9 |
| 20260506042611 | 25 | 179 | 25.7 | 33.8 | 0.00 | 0.00 | 0.00 | 88 | 1010.0 |
| 20260506042208 | 25 | 174 | 20.9 | 25.7 | 0.00 | 0.00 | 0.00 | 88 | 1010.0 |
| 20260506041704 | 25 | 156 | 20.9 | 29.0 | 0.00 | 0.00 | 0.00 | 88 | 1010.0 |
| 20260506041201 | 25 | 174 | 24.1 | 29.0 | 0.00 | 0.00 | 0.00 | 88 | 1010.0 |
| 20260506040204 | 25 | 162 | 24.1 | 32.2 | 0.00 | 0.00 | 0.00 | 87 | 1009.9 |
| 20260506035700 | 25 | 166 | 25.7 | 32.2 | 0.00 | 0.00 | 0.00 | 87 | 1009.8 |
| 20260506035155 | 25 | 161 | 16.1 | 20.9 | 0.00 | 0.00 | 0.00 | 87 | 1009.8 |
| 20260506034704 | 25 | 163 | 16.1 | 24.1 | 0.00 | 0.00 | 0.00 | 87 | 1009.6 |
| 20260506034205 | 25 | 167 | 19.3 | 24.1 | 0.00 | 0.00 | 0.00 | 87 | 1009.5 |
| 20260506033644 | 25 | 166 | 17.7 | 24.1 | 0.00 | 0.00 | 0.00 | 87 | 1009.5 |
| 20260506033159 | 25 | 155 | 17.7 | 25.7 | 0.00 | 0.00 | 0.00 | 87 | 1009.4 |
| 20260506032655 | 25 | 165 | 19.3 | 25.7 | 0.00 | 0.00 | 0.00 | 87 | 1009.2 |
| 20260506032217 | 25 | 141 | 19.3 | 25.7 | 0.00 | 0.00 | 0.00 | 86 | 1009.0 |
| 20260506031709 | 25 | 157 | 20.9 | 25.7 | 0.00 | 0.00 | 0.00 | 86 | 1008.9 |
| 20260506031206 | 25 | 157 | 20.9 | 32.2 | 0.00 | 0.00 | 0.00 | 86 | 1009.0 |
| 20260506030710 | 25 | 162 | 22.5 | 32.2 | 0.00 | 0.00 | 0.00 | 86 | 1008.9 |
| 20260506030212 | 25 | 158 | 27.4 | 32.2 | 0.00 | 0.00 | 0.00 | 86 | 1008.8 |
| 20260506025711 | 26 | 157 | 24.1 | 30.6 | 0.00 | 0.00 | 0.00 | 85 | 1008.7 |
| 20260506025210 | 26 | 150 | 19.3 | 25.7 | 0.00 | 0.00 | 0.00 | 85 | 1008.7 |
| 20260506024707 | 26 | 155 | 19.3 | 22.5 | 0.00 | 0.00 | 0.00 | 85 | 1008.7 |
| 20260506024145 | 26 | 146 | 19.3 | 22.5 | 0.00 | 0.00 | 0.00 | 85 | 1008.6 |
| 20260506023210 | 26 | 152 | 19.3 | 24.1 | 0.00 | 0.00 | 0.00 | 84 | 1008.4 |
| 20260506022619 | 26 | 147 | 20.9 | 29.0 | 0.00 | 0.00 | 0.00 | 84 | 1008.2 |
| 20260506022144 | 26 | 148 | 22.5 | 29.0 | 0.00 | 0.00 | 0.00 | 83 | 1008.2 |
| 20260506021659 | 26 | 146 | 22.5 | 29.0 | 0.00 | 0.00 | 0.00 | 83 | 1008.1 |
| 20260506021155 | 26 | 145 | 17.7 | 29.0 | 0.00 | 0.00 | 0.00 | 83 | 1008.2 |
| 20260506020650 | 26 | 138 | 11.3 | 14.5 | 0.00 | 0.00 | 0.00 | 83 | 1008.2 |
| 20260506020147 | 26 | 128 | 11.3 | 14.5 | 0.00 | 0.00 | 0.00 | 82 | 1008.0 |
| 20260506015621 | 26 | 103 | 11.3 | 14.5 | 0.00 | 0.00 | 0.00 | 82 | 1008.0 |
| 20260506015124 | 26 | 104 | 9.7 | 12.9 | 0.00 | 0.00 | 0.00 | 82 | 1007.9 |
| 20260506014620 | 26 | 116 | 11.3 | 12.9 | 0.00 | 0.00 | 0.00 | 82 | 1007.8 |
| 20260506014116 | 26 | 114 | 9.7 | 11.3 | 0.00 | 0.00 | 0.00 | 82 | 1007.7 |
| 20260506013617 | 26 | 113 | 8.0 | 11.3 | 0.00 | 0.00 | 0.00 | 82 | 1007.7 |
| 20260506013201 | 26 | 115 | 8.0 | 11.3 | 0.00 | 0.00 | 0.00 | 82 | 1007.6 |
| 20260506012207 | 27 | 127 | 8.0 | 9.7 | 0.00 | 0.00 | 0.00 | 81 | 1007.5 |
| 20260506011656 | 27 | 128 | 8.0 | 9.7 | 0.00 | 0.00 | 0.00 | 81 | 1007.7 |
| 20260506011131 | 27 | 120 | 8.0 | 11.3 | 0.00 | 0.00 | 0.00 | 81 | 1007.7 |
| 20260506010732 | 27 | 126 | 8.0 | 12.9 | 0.00 | 0.00 | 0.00 | 81 | 1007.6 |
| 20260506010204 | 27 | 133 | 9.7 | 12.9 | 0.00 | 0.00 | 0.00 | 81 | 1007.6 |
| 20260506005207 | 27 | 138 | 9.7 | 11.3 | 0.00 | 0.00 | 0.00 | 82 | 1007.6 |
| 20260506004611 | 26 | 133 | 6.4 | 9.7 | 0.00 | 0.00 | 0.00 | 83 | 1007.7 |
| 20260506004211 | 26 | 166 | 4.8 | 6.4 | 0.00 | 0.00 | 0.00 | 83 | 1007.6 |
| 20260506003704 | 26 | 168 | 4.8 | 6.4 | 0.00 | 0.00 | 0.00 | 82 | 1007.6 |
| 20260506002627 | 26 | 168 | 0.0 | 1.6 | 0.00 | 0.00 | 0.00 | 82 | 1007.6 |
| 20260506002122 | 26 | 168 | 1.6 | 1.6 | 0.00 | 0.00 | 0.00 | 82 | 1007.5 |
| 20260506001724 | 26 | 168 | 0.0 | 6.4 | 0.00 | 0.00 | 0.00 | 82 | 1007.5 |
| 20260506001158 | 26 | 168 | 1.6 | 6.4 | 0.00 | 0.00 | 0.00 | 82 | 1007.5 |
| 20260506000652 | 26 | 168 | 3.2 | 8.0 | 0.00 | 0.00 | 0.00 | 82 | 1007.5 |
| 20260506000151 | 26 | 167 | 4.8 | 9.7 | 0.00 | 0.00 | 0.00 | 81 | 1007.4 |
| 20260505235634 | 26 | 168 | 8.0 | 9.7 | 0.00 | 0.00 | 0.00 | 81 | 1007.5 |
| 20260505235125 | 26 | 176 | 6.4 | 11.3 | 0.00 | 0.00 | 0.00 | 81 | 1007.4 |
| 20260505234623 | 26 | 172 | 8.0 | 14.5 | 0.00 | 0.00 | 0.00 | 81 | 1007.4 |
| 20260505234122 | 27 | 162 | 11.3 | 17.7 | 0.00 | 0.00 | 0.00 | 80 | 1007.2 |
| 20260505233644 | 27 | 166 | 14.5 | 17.7 | 0.00 | 0.00 | 0.00 | 80 | 1007.3 |
| 20260505233142 | 26 | 178 | 12.9 | 14.5 | 0.00 | 0.00 | 0.00 | 80 | 1007.3 |
| 20260505232641 | 27 | 172 | 12.9 | 14.5 | 0.00 | 0.00 | 0.00 | 80 | 1007.2 |
| 20260505232137 | 26 | 165 | 8.0 | 11.3 | 0.00 | 0.00 | 0.00 | 80 | 1007.2 |
| 20260505231650 | 27 | 176 | 6.4 | 12.9 | 0.00 | 0.00 | 0.00 | 80 | 1007.2 |
| 20260505231147 | 27 | 182 | 8.0 | 17.7 | 0.00 | 0.00 | 0.00 | 80 | 1007.1 |
| 20260505230649 | 27 | 178 | 12.9 | 19.3 | 0.00 | 0.00 | 0.00 | 80 | 1007.2 |
| 20260505230215 | 27 | 174 | 12.9 | 19.3 | 0.00 | 0.00 | 0.00 | 80 | 1006.9 |
| 20260505225706 | 27 | 162 | 17.7 | 20.9 | 0.00 | 0.00 | 0.00 | 80 | 1007.0 |
| 20260505225203 | 26 | 172 | 16.1 | 20.9 | 0.00 | 0.00 | 0.00 | 80 | 1006.8 |
| 20260505224658 | 27 | 179 | 14.5 | 22.5 | 0.00 | 0.00 | 0.00 | 80 | 1007.1 |
| 20260505224138 | 26 | 149 | 19.3 | 22.5 | 0.00 | 0.00 | 0.00 | 80 | 1006.9 |
| 20260505223617 | 26 | 159 | 17.7 | 19.3 | 0.00 | 0.00 | 0.00 | 80 | 1007.1 |
| 20260505223138 | 27 | 163 | 12.9 | 17.7 | 0.00 | 0.00 | 0.00 | 80 | 1007.2 |
| 20260505222633 | 27 | 187 | 12.9 | 19.3 | 0.00 | 0.00 | 0.00 | 80 | 1007.1 |
| 20260505222148 | 27 | 174 | 16.1 | 22.5 | 0.00 | 0.00 | 0.00 | 80 | 1007.2 |
| 20260505221659 | 26 | 181 | 17.7 | 22.5 | 0.00 | 0.00 | 0.00 | 80 | 1006.9 |
| 20260505221221 | 26 | 185 | 17.7 | 20.9 | 0.00 | 0.00 | 0.00 | 80 | 1007.0 |
| 20260505220119 | 26 | 179 | 11.3 | 20.9 | 0.00 | 0.00 | 0.00 | 81 | 1007.2 |
| 20260505215614 | 26 | 177 | 14.5 | 20.9 | 0.00 | 0.00 | 0.00 | 81 | 1007.2 |
| 20260505215117 | 26 | 174 | 17.7 | 20.9 | 0.00 | 0.00 | 0.00 | 81 | 1007.2 |
| 20260505214613 | 26 | 173 | 17.7 | 20.9 | 0.00 | 0.00 | 0.00 | 81 | 1007.3 |
| 20260505214115 | 26 | 179 | 14.5 | 17.7 | 0.00 | 0.00 | 0.00 | 82 | 1007.3 |
| 20260505213630 | 26 | 175 | 9.7 | 14.5 | 0.00 | 0.00 | 0.00 | 82 | 1007.7 |
| 20260505213144 | 26 | 182 | 11.3 | 17.7 | 0.00 | 0.00 | 0.00 | 82 | 1007.8 |
| 20260505212208 | 26 | 153 | 12.9 | 16.1 | 0.00 | 0.00 | 0.00 | 82 | 1007.8 |
| 20260505211706 | 26 | 193 | 9.7 | 19.3 | 0.00 | 0.00 | 0.00 | 82 | 1007.8 |
| 20260505211203 | 26 | 163 | 16.1 | 19.3 | 0.00 | 0.00 | 0.00 | 82 | 1007.9 |
| 20260505210655 | 26 | 155 | 16.1 | 22.5 | 0.00 | 0.00 | 0.00 | 82 | 1007.9 |
| 20260505210148 | 26 | 147 | 17.7 | 22.5 | 0.00 | 0.00 | 0.00 | 82 | 1008.0 |
| 20260505205642 | 26 | 166 | 16.1 | 20.9 | 0.00 | 0.00 | 0.00 | 83 | 1008.0 |
| 20260505204706 | 26 | 200 | 8.0 | 14.5 | 0.00 | 0.00 | 0.00 | 83 | 1008.1 |
| 20260505204204 | 26 | 179 | 11.3 | 17.7 | 0.00 | 0.00 | 0.00 | 82 | 1008.2 |
| 20260505203641 | 26 | 160 | 14.5 | 17.7 | 0.00 | 0.00 | 0.00 | 82 | 1008.3 |
| 20260505202711 | 26 | 175 | 9.7 | 22.5 | 0.00 | 0.00 | 0.00 | 83 | 1008.7 |
| 20260505202210 | 26 | 199 | 12.9 | 22.5 | 0.00 | 0.00 | 0.00 | 83 | 1008.6 |
| 20260505201702 | 26 | 202 | 11.3 | 17.7 | 0.00 | 0.00 | 0.00 | 83 | 1008.7 |
| 20260505201154 | 25 | 202 | 12.9 | 19.3 | 0.00 | 0.00 | 0.00 | 83 | 1008.8 |
| 20260505200649 | 25 | 172 | 17.7 | 19.3 | 0.00 | 0.00 | 0.00 | 83 | 1008.8 |
| 20260505200139 | 25 | 186 | 14.5 | 19.3 | 0.00 | 0.00 | 0.00 | 83 | 1008.8 |
| 20260505195612 | 25 | 188 | 16.1 | 19.3 | 0.00 | 0.00 | 0.00 | 84 | 1008.8 |
| 20260505195126 | 25 | 175 | 11.3 | 19.3 | 0.00 | 0.00 | 0.00 | 84 | 1008.9 |
| 20260505194624 | 25 | 203 | 12.9 | 20.9 | 0.00 | 0.00 | 0.00 | 84 | 1009.0 |
| 20260505194127 | 25 | 175 | 12.9 | 17.7 | 0.00 | 0.00 | 0.00 | 84 | 1009.1 |
| 20260505193625 | 25 | 197 | 14.5 | 19.3 | 0.00 | 0.00 | 0.00 | 84 | 1009.0 |
| 20260505193125 | 25 | 169 | 9.7 | 19.3 | 0.00 | 0.00 | 0.00 | 84 | 1009.1 |
| 20260505192627 | 25 | 216 | 12.9 | 19.3 | 0.00 | 0.00 | 0.00 | 84 | 1009.3 |
| 20260505192142 | 25 | 215 | 12.9 | 19.3 | 0.00 | 0.00 | 0.00 | 85 | 1009.3 |
| 20260505191210 | 25 | 193 | 16.1 | 24.1 | 0.00 | 0.00 | 0.00 | 85 | 1009.2 |
| 20260505190621 | 25 | 182 | 11.3 | 16.1 | 0.00 | 0.00 | 0.00 | 86 | 1009.2 |
| 20260505190144 | 25 | 178 | 9.7 | 22.5 | 0.00 | 0.00 | 0.00 | 86 | 1009.3 |
| 20260505185657 | 25 | 206 | 9.7 | 22.5 | 0.00 | 0.00 | 0.00 | 86 | 1009.5 |
| 20260505185210 | 24 | 189 | 11.3 | 19.3 | 0.00 | 0.00 | 0.00 | 86 | 1009.7 |
| 20260505184707 | 24 | 163 | 14.5 | 19.3 | 0.00 | 0.00 | 0.00 | 86 | 1009.7 |
| 20260505184115 | 24 | 203 | 11.3 | 16.1 | 0.00 | 0.00 | 0.00 | 86 | 1009.9 |
| 20260505183717 | 24 | 172 | 12.9 | 16.1 | 0.00 | 0.00 | 0.00 | 86 | 1009.9 |
| 20260505183133 | 24 | 181 | 11.3 | 17.7 | 0.00 | 0.00 | 0.00 | 87 | 1010.0 |
| 20260505182634 | 24 | 207 | 14.5 | 17.7 | 0.00 | 0.00 | 0.00 | 86 | 1010.0 |
| 20260505182148 | 24 | 212 | 8.0 | 16.1 | 0.00 | 0.00 | 0.00 | 86 | 1010.0 |
| 20260505181642 | 24 | 222 | 11.3 | 19.3 | 0.00 | 0.00 | 0.00 | 86 | 1010.2 |
| 20260505181122 | 24 | 212 | 16.1 | 19.3 | 0.00 | 0.00 | 0.00 | 86 | 1010.1 |
| 20260505180614 | 24 | 198 | 12.9 | 20.9 | 0.00 | 0.00 | 0.00 | 87 | 1010.1 |
| 20260505180125 | 24 | 213 | 14.5 | 20.9 | 0.00 | 0.00 | 0.00 | 87 | 1010.1 |
| 20260505175645 | 24 | 238 | 9.7 | 14.5 | 0.00 | 0.00 | 0.00 | 87 | 1010.2 |
| 20260505174706 | 23 | 226 | 12.9 | 17.7 | 0.00 | 0.00 | 0.00 | 87 | 1010.2 |
| 20260505174204 | 23 | 247 | 12.9 | 17.7 | 0.00 | 0.00 | 0.00 | 87 | 1010.2 |
| 20260505173659 | 23 | 233 | 11.3 | 22.5 | 0.00 | 0.00 | 0.00 | 88 | 1010.2 |
| 20260505172708 | 23 | 213 | 8.0 | 17.7 | 0.00 | 0.00 | 0.00 | 88 | 1010.3 |
| 20260505172119 | 23 | 213 | 12.9 | 20.9 | 0.00 | 0.00 | 0.00 | 88 | 1010.4 |
| 20260505171725 | 23 | 236 | 14.5 | 20.9 | 0.00 | 0.00 | 0.00 | 89 | 1010.3 |
| 20260505171204 | 23 | 239 | 8.0 | 12.9 | 0.00 | 0.00 | 0.00 | 89 | 1010.3 |
| 20260505170701 | 23 | 204 | 4.8 | 12.9 | 0.00 | 0.00 | 0.00 | 89 | 1010.5 |
| 20260505170131 | 23 | 225 | 11.3 | 20.9 | 0.00 | 0.00 | 0.00 | 89 | 1010.5 |
| 20260505165706 | 23 | 230 | 8.0 | 20.9 | 0.00 | 0.00 | 0.00 | 89 | 1010.6 |
| 20260505165200 | 23 | 224 | 11.3 | 20.9 | 0.00 | 0.00 | 0.00 | 89 | 1010.6 |
| 20260505164657 | 22 | 207 | 16.1 | 20.9 | 0.00 | 0.00 | 0.00 | 89 | 1010.6 |
| 20260505164152 | 22 | 230 | 12.9 | 17.7 | 0.00 | 0.00 | 0.00 | 89 | 1010.5 |
| 20260505163647 | 22 | 206 | 11.3 | 17.7 | 0.00 | 0.00 | 0.00 | 90 | 1010.5 |
| 20260505163121 | 22 | 205 | 12.9 | 22.5 | 0.00 | 0.00 | 0.00 | 90 | 1010.5 |
| 20260505162629 | 22 | 222 | 17.7 | 22.5 | 0.00 | 0.00 | 0.00 | 90 | 1010.4 |
| 20260505162127 | 22 | 224 | 14.5 | 22.5 | 0.00 | 0.00 | 0.00 | 90 | 1010.4 |
| 20260505161624 | 22 | 201 | 12.9 | 19.3 | 0.00 | 0.00 | 0.00 | 90 | 1010.3 |
| 20260505161127 | 22 | 222 | 12.9 | 20.9 | 0.00 | 0.00 | 0.00 | 90 | 1010.3 |
| 20260505160622 | 22 | 206 | 12.9 | 20.9 | 0.00 | 0.00 | 0.00 | 90 | 1010.2 |
| 20260505160120 | 22 | 229 | 12.9 | 24.1 | 0.00 | 0.00 | 0.00 | 90 | 1010.3 |
| 20260505153151 | 22 | 214 | 14.5 | 17.7 | 0.00 | 0.00 | 0.00 | 90 | 1010.3 |
| 20260505152645 | 21 | 199 | 12.9 | 19.3 | 0.00 | 0.00 | 0.00 | 91 | 1010.3 |
| 20260505152125 | 21 | 214 | 12.9 | 19.3 | 0.00 | 0.00 | 0.00 | 91 | 1010.3 |
| 20260505151623 | 21 | 206 | 14.5 | 19.3 | 0.00 | 0.00 | 0.00 | 90 | 1010.2 |
| 20260505151204 | 21 | 223 | 12.9 | 14.5 | 0.00 | 0.00 | 0.00 | 90 | 1010.3 |
| 20260505150613 | 21 | 223 | 8.0 | 12.9 | 0.00 | 0.00 | 0.00 | 91 | 1010.3 |
| 20260505150155 | 21 | 213 | 9.7 | 16.1 | 0.00 | 0.00 | 0.00 | 91 | 1010.3 |
| 20260505140159 | 21 | 218 | 16.1 | 29.0 | 0.00 | 0.00 | 0.00 | 91 | 1010.3 |
| 20260505130157 | 21 | 221 | 22.5 | 30.6 | 0.00 | 0.00 | 0.00 | 91 | 1009.6 |
| 20260505124656 | 21 | 205 | 19.3 | 24.1 | 0.00 | 0.00 | 0.00 | 90 | 1009.6 |
| 20260505124133 | 21 | 203 | 20.9 | 24.1 | 0.00 | 0.00 | 0.00 | 90 | 1009.5 |
| 20260505123653 | 21 | 197 | 16.1 | 22.5 | 0.00 | 0.00 | 0.00 | 90 | 1009.5 |
| 20260505123145 | 21 | 222 | 17.7 | 25.7 | 0.00 | 0.00 | 0.00 | 90 | 1009.4 |
| 20260505122657 | 21 | 210 | 16.1 | 25.7 | 0.00 | 0.00 | 0.00 | 90 | 1009.3 |
| 20260505122148 | 21 | 213 | 17.7 | 25.7 | 0.00 | 0.00 | 0.00 | 90 | 1009.3 |
| 20260505121644 | 21 | 216 | 16.1 | 19.3 | 0.00 | 0.00 | 0.00 | 90 | 1009.1 |
| 20260505121141 | 21 | 205 | 16.1 | 22.5 | 0.00 | 0.00 | 0.00 | 90 | 1009.1 |
| 20260505120624 | 21 | 215 | 16.1 | 25.7 | 0.00 | 0.00 | 0.00 | 90 | 1009.0 |
| 20260505120122 | 21 | 228 | 17.7 | 25.7 | 0.00 | 0.00 | 0.00 | 90 | 1009.1 |
| 20260505115644 | 21 | 211 | 17.7 | 25.7 | 0.00 | 0.00 | 0.00 | 90 | 1009.1 |
| 20260505115208 | 21 | 213 | 17.7 | 25.7 | 0.00 | 0.00 | 0.00 | 90 | 1009.1 |
| 20260505114706 | 21 | 205 | 19.3 | 25.7 | 0.00 | 0.00 | 0.00 | 90 | 1009.0 |
| 20260505114143 | 21 | 219 | 9.7 | 17.7 | 0.00 | 0.00 | 0.00 | 90 | 1009.0 |
| 20260505113639 | 21 | 201 | 12.9 | 19.3 | 0.00 | 0.00 | 0.00 | 90 | 1009.0 |
| 20260505113134 | 21 | 197 | 14.5 | 22.5 | 0.00 | 0.00 | 0.00 | 90 | 1009.0 |
| 20260505112701 | 21 | 220 | 14.5 | 22.5 | 0.00 | 0.00 | 0.00 | 90 | 1009.0 |
| 20260505111615 | 21 | 219 | 19.3 | 29.0 | 0.00 | 0.00 | 0.00 | 90 | 1009.0 |
| 20260505111112 | 21 | 220 | 16.1 | 22.5 | 0.00 | 0.00 | 0.00 | 90 | 1008.8 |
| 20260505110717 | 21 | 207 | 19.3 | 22.5 | 0.00 | 0.00 | 0.00 | 90 | 1008.8 |
| 20260505102145 | 21 | 211 | 17.7 | 25.7 | 0.00 | 0.00 | 0.00 | 90 | 1009.0 |
| 20260505101642 | 21 | 211 | 19.3 | 25.7 | 0.00 | 0.00 | 0.00 | 90 | 1009.0 |
| 20260505101147 | 21 | 198 | 19.3 | 32.2 | 0.00 | 0.00 | 0.00 | 90 | 1009.1 |
| 20260505100210 | 21 | 217 | 17.7 | 32.2 | 0.00 | 0.00 | 0.00 | 90 | 1009.4 |
| 20260505095705 | 21 | 212 | 20.9 | 32.2 | 0.00 | 0.00 | 0.00 | 90 | 1009.2 |
| 20260505095157 | 21 | 212 | 19.3 | 25.7 | 0.00 | 0.00 | 0.00 | 90 | 1009.2 |
| 20260505094653 | 21 | 197 | 16.1 | 30.6 | 0.00 | 0.00 | 0.00 | 90 | 1009.1 |
| 20260505094153 | 21 | 209 | 20.9 | 30.6 | 0.00 | 0.00 | 0.00 | 90 | 1009.2 |
| 20260505093649 | 21 | 205 | 17.7 | 30.6 | 0.00 | 0.00 | 0.00 | 90 | 1009.4 |
| 20260505093145 | 21 | 219 | 20.9 | 30.6 | 0.00 | 0.00 | 0.00 | 90 | 1009.4 |
| 20260505092211 | 21 | 193 | 20.9 | 33.8 | 0.00 | 0.00 | 0.00 | 89 | 1009.3 |
| 20260505091717 | 21 | 193 | 16.1 | 29.0 | 0.00 | 0.00 | 0.00 | 89 | 1009.2 |
| 20260505091154 | 21 | 202 | 17.7 | 29.0 | 0.00 | 0.00 | 0.00 | 89 | 1009.2 |
| 20260505090644 | 21 | 206 | 16.1 | 24.1 | 0.00 | 0.00 | 0.00 | 89 | 1009.4 |
| 20260505090141 | 21 | 201 | 17.7 | 24.1 | 0.00 | 0.00 | 0.00 | 89 | 1009.7 |
| 20260505085643 | 21 | 204 | 16.1 | 24.1 | 0.00 | 0.00 | 0.00 | 89 | 1009.4 |
| 20260505085141 | 21 | 199 | 16.1 | 30.6 | 0.00 | 0.00 | 0.00 | 89 | 1009.4 |
| 20260505084646 | 21 | 203 | 16.1 | 33.8 | 0.00 | 0.00 | 0.00 | 89 | 1009.5 |
| 20260505084149 | 21 | 211 | 19.3 | 33.8 | 0.00 | 0.00 | 0.00 | 89 | 1009.7 |
| 20260505083648 | 21 | 199 | 16.1 | 20.9 | 0.00 | 0.00 | 0.00 | 89 | 1009.7 |
| 20260505083144 | 21 | 197 | 17.7 | 20.9 | 0.00 | 0.00 | 0.00 | 89 | 1009.7 |
| 20260505082640 | 21 | 188 | 14.5 | 22.5 | 0.00 | 0.00 | 0.00 | 89 | 1009.6 |
| 20260505082133 | 21 | 202 | 14.5 | 20.9 | 0.00 | 0.00 | 0.00 | 89 | 1010.0 |
| 20260505081632 | 21 | 201 | 14.5 | 29.0 | 0.00 | 0.00 | 0.00 | 89 | 1009.8 |
| 20260505081113 | 21 | 207 | 17.7 | 29.0 | 0.00 | 0.00 | 0.00 | 89 | 1009.8 |
| 20260505080613 | 21 | 209 | 16.1 | 22.5 | 0.00 | 0.00 | 0.00 | 89 | 1010.0 |
| 20260505080124 | 21 | 195 | 14.5 | 25.7 | 0.00 | 0.00 | 0.00 | 89 | 1010.1 |
| 20260505075620 | 21 | 205 | 20.9 | 25.7 | 0.00 | 0.00 | 0.00 | 89 | 1010.0 |
| 20260505075144 | 21 | 188 | 17.7 | 25.7 | 0.00 | 0.00 | 0.00 | 89 | 1010.1 |
| 20260505074624 | 21 | 202 | 16.1 | 24.1 | 0.00 | 0.00 | 0.00 | 88 | 1010.1 |
| 20260505074123 | 21 | 201 | 20.9 | 29.0 | 0.00 | 0.00 | 0.00 | 88 | 1010.2 |
| 20260505073643 | 21 | 201 | 14.5 | 29.0 | 0.00 | 0.00 | 0.00 | 88 | 1010.3 |
| 20260505073143 | 21 | 180 | 17.7 | 29.0 | 0.00 | 0.00 | 0.00 | 88 | 1010.4 |
| 20260505072656 | 21 | 191 | 19.3 | 29.0 | 0.00 | 0.00 | 0.00 | 88 | 1010.5 |
| 20260505072149 | 21 | 194 | 19.3 | 30.6 | 0.00 | 0.00 | 0.00 | 88 | 1010.5 |
| 20260505071645 | 21 | 193 | 20.9 | 33.8 | 0.00 | 0.00 | 0.00 | 88 | 1010.7 |
| 20260505071141 | 21 | 217 | 22.5 | 37.0 | 0.00 | 0.00 | 0.00 | 88 | 1010.6 |
| 20260505070626 | 21 | 188 | 19.3 | 32.2 | 0.00 | 0.00 | 0.00 | 88 | 1010.9 |
| 20260505070119 | 21 | 192 | 19.3 | 24.1 | 0.00 | 0.00 | 0.00 | 88 | 1010.9 |